GW4288 Weather Reports


Display with metric or nautical units.
time (UTC)temp
F
wind
direction
speed
MPH
gust
MPH
rain 1hr
in
rain 24hr
in
rain mn
in
humidity
%
barometer
mb
20260905191225 57 99 0.0 2.0 0.00 0.06 0.06 80 1022.1
20260905191001 57 110 0.0 3.0 0.00 0.06 0.06 81 1021.9
20260905190225 57 105 2.0 3.0 0.00 0.06 0.06 81 1021.8
20260905185722 57 111 2.0 3.0 0.00 0.06 0.06 81 1021.7
20260905185224 57 99 2.0 3.0 0.00 0.06 0.06 81 1021.6
20260905184721 57 105 2.0 3.0 0.00 0.06 0.06 80 1021.7
20260905184226 57 107 2.0 3.0 0.00 0.06 0.06 80 1021.5
20260905183722 57 110 2.0 3.0 0.00 0.06 0.06 80 1021.6
20260905183254 57 87 2.0 3.0 0.00 0.06 0.06 80 1021.6
20260905182221 57 98 2.0 3.0 0.00 0.06 0.06 80 1021.3
20260905181722 57 90 2.0 3.0 0.00 0.06 0.06 80 1021.2
20260905181222 58 100 2.0 3.0 0.00 0.06 0.06 80 1021.2
20260905180722 58 104 1.0 2.0 0.00 0.06 0.06 80 1021.2
20260905180222 58 89 2.0 3.0 0.00 0.06 0.06 79 1021.0
20260905175722 58 103 2.0 3.0 0.00 0.06 0.06 80 1020.8
20260905175221 58 146 1.0 2.0 0.00 0.06 0.06 80 1020.9
20260905174958 59 146 1.0 2.0 0.00 0.06 0.06 79 1020.7
20260905174222 59 146 1.0 2.0 0.00 0.06 0.06 78 1020.8
20260905173722 60 146 1.0 2.0 0.00 0.06 0.06 78 1020.6
20260905173218 60 146 1.0 2.0 0.00 0.06 0.06 78 1020.6
20260905172714 60 146 1.0 2.0 0.00 0.06 0.06 78 1020.6
20260905172217 61 146 1.0 2.0 0.00 0.06 0.06 77 1020.5
20260905171714 61 146 1.0 2.0 0.00 0.06 0.06 76 1020.6
20260905171216 62 146 1.0 2.0 0.00 0.06 0.06 77 1020.4
20260905170715 62 146 0.0 2.0 0.00 0.06 0.06 75 1020.3
20260905170457 63 146 0.0 2.0 0.00 0.06 0.06 73 1020.3
20260905165714 64 146 0.0 0.0 0.00 0.06 0.06 74 1020.3
20260905165218 64 146 0.0 2.0 0.00 0.06 0.06 70 1020.2
20260905164712 65 146 0.0 2.0 0.00 0.06 0.06 70 1020.2
20260905164211 66 265 0.0 3.0 0.00 0.06 0.06 68 1020.1
20260905163946 67 265 1.0 3.0 0.00 0.06 0.06 63 1020.1
20260905163210 67 289 0.0 3.0 0.00 0.06 0.06 60 1020.1
20260905162947 68 215 2.0 4.0 0.00 0.06 0.06 60 1020.0
20260905162211 69 286 0.0 4.0 0.00 0.06 0.06 58 1020.0
20260905161710 69 276 2.0 6.0 0.00 0.06 0.06 59 1019.7
20260905161211 70 263 2.0 6.0 0.00 0.06 0.06 57 1019.6
20260905160709 70 282 4.0 6.0 0.00 0.06 0.06 55 1019.6
20260905160211 71 266 4.0 11.0 0.00 0.06 0.06 55 1019.6
20260905155708 71 292 3.0 11.0 0.00 0.06 0.06 54 1019.4
20260905155210 71 258 4.0 8.0 0.00 0.06 0.06 56 1019.4
20260905154708 71 83 2.0 14.0 0.00 0.06 0.06 54 1019.4
20260905154211 72 302 7.0 14.0 0.00 0.06 0.06 52 1019.3
20260905153707 72 275 3.0 9.0 0.00 0.06 0.06 55 1019.5
20260905153211 73 259 2.0 9.0 0.00 0.06 0.06 54 1019.2
20260905152707 72 287 3.0 9.0 0.00 0.06 0.06 55 1019.3
20260905152210 72 347 2.0 8.0 0.00 0.06 0.06 54 1019.2
20260905151708 72 227 2.0 9.0 0.00 0.06 0.06 53 1019.3
20260905151204 73 310 1.0 9.0 0.00 0.06 0.06 51 1019.2
20260905150704 73 251 3.0 10.0 0.00 0.06 0.06 52 1019.4
20260905150205 73 257 6.0 10.0 0.00 0.06 0.06 53 1019.3
20260905145704 73 311 6.0 15.0 0.00 0.06 0.06 53 1019.4
20260905145205 72 323 6.0 15.0 0.00 0.06 0.06 54 1019.3
20260905144704 73 218 4.0 9.0 0.00 0.06 0.06 52 1019.1
20260905144206 73 55 2.0 11.0 0.00 0.06 0.06 52 1019.2
20260905143704 73 269 8.0 11.0 0.00 0.06 0.06 54 1019.1
20260905143207 74 291 3.0 11.0 0.00 0.06 0.06 51 1019.0
20260905142704 74 258 1.0 9.0 0.00 0.06 0.06 51 1019.0
20260905142207 74 236 4.0 11.0 0.00 0.06 0.06 50 1019.1
20260905141656 74 350 3.0 11.0 0.00 0.06 0.06 50 1019.2
20260905141159 74 337 2.0 11.0 0.00 0.06 0.06 54 1019.4
20260905140656 73 278 7.0 11.0 0.00 0.06 0.06 57 1019.0
20260905140159 74 280 2.0 13.0 0.00 0.06 0.06 54 1019.1
20260905135657 74 268 3.0 13.0 0.00 0.06 0.06 52 1019.2
20260905135159 76 280 2.0 8.0 0.00 0.06 0.06 50 1019.0
20260905134935 75 80 2.0 8.0 0.00 0.06 0.06 52 1019.2
20260905134159 74 260 2.0 11.0 0.00 0.06 0.06 52 1019.2
20260905133933 74 272 5.0 11.0 0.00 0.06 0.06 51 1019.2
20260905133159 75 172 1.0 8.0 0.00 0.06 0.06 54 1019.2
20260905132656 74 111 2.0 15.0 0.00 0.06 0.06 52 1019.0
20260905132158 73 300 2.0 15.0 0.00 0.06 0.06 54 1019.2
20260905131656 73 272 3.0 16.0 0.00 0.06 0.06 53 1019.2
20260905131200 73 298 4.0 16.0 0.00 0.06 0.06 54 1019.2
20260905130656 73 252 8.0 10.0 0.00 0.06 0.06 55 1019.0
20260905130444 72 280 3.0 11.0 0.00 0.06 0.06 56 1019.1
20260905125656 72 294 6.0 14.0 0.00 0.06 0.06 56 1019.3
20260905125159 72 29 2.0 14.0 0.00 0.06 0.06 56 1019.3
20260905124706 73 328 5.0 9.0 0.00 0.06 0.06 55 1019.3
20260905123656 73 244 7.0 9.0 0.00 0.06 0.06 59 1019.3
20260905123156 73 212 5.0 10.0 0.00 0.06 0.06 58 1019.4
20260905122937 71 276 2.0 13.0 0.00 0.06 0.06 59 1019.4
20260905122156 71 346 5.0 13.0 0.00 0.06 0.06 59 1019.6
20260905121943 71 268 4.0 13.0 0.00 0.06 0.06 59 1019.6
20260905121434 70 285 3.0 19.0 0.00 0.06 0.06 62 1019.6
20260905120654 70 276 5.0 19.0 0.00 0.06 0.06 61 1019.6
20260905120154 71 36 5.0 11.0 0.00 0.06 0.06 61 1019.7
20260905115654 70 284 6.0 13.0 0.00 0.06 0.06 63 1019.8
20260905115154 70 89 6.0 13.0 0.00 0.06 0.06 64 1019.8
20260905114943 68 315 3.0 10.0 0.00 0.06 0.06 64 1020.0
20260905114430 68 10 3.0 10.0 0.00 0.06 0.06 65 1019.7
20260905113654 69 324 5.0 9.0 0.00 0.06 0.06 63 1020.1
20260905113434 67 298 8.0 11.0 0.00 0.06 0.06 65 1020.2
20260905112653 67 238 3.0 11.0 0.00 0.06 0.06 66 1019.8
20260905111645 69 275 4.0 13.0 0.00 0.06 0.06 65 1020.0
20260905111144 69 290 3.0 13.0 0.00 0.06 0.06 66 1019.8
20260905110644 68 249 3.0 7.0 0.00 0.06 0.06 66 1020.1
20260905110144 67 324 4.0 7.0 0.00 0.06 0.06 67 1019.8
20260905105644 66 29 1.0 11.0 0.00 0.06 0.06 69 1019.8
20260905105145 67 266 4.0 11.0 0.00 0.06 0.06 68 1020.1
20260905104644 68 277 3.0 10.0 0.00 0.06 0.06 67 1020.1
20260905104144 67 264 1.0 6.0 0.00 0.06 0.06 67 1020.1
20260905103644 67 300 3.0 10.0 0.00 0.06 0.06 70 1020.1
20260905103144 65 275 2.0 10.0 0.00 0.06 0.06 68 1020.4
20260905102644 65 288 4.0 11.0 0.00 0.06 0.06 67 1020.3
20260905102145 64 271 1.0 11.0 0.00 0.06 0.06 71 1020.4
20260905101644 64 287 3.0 11.0 0.00 0.06 0.06 70 1020.4
20260905101151 64 287 3.0 11.0 0.00 0.06 0.06 69 1020.5
20260905100644 64 345 2.0 8.0 0.00 0.06 0.06 70 1020.4
20260905100151 66 286 5.0 8.0 0.00 0.06 0.06 67 1020.4
20260905095644 65 292 3.0 11.0 0.00 0.06 0.06 68 1020.4
20260905095220 65 247 2.0 11.0 0.00 0.06 0.06 69 1020.3
20260905094151 64 64 4.0 9.0 0.00 0.06 0.06 71 1020.3
20260905093645 63 46 0.0 10.0 0.00 0.06 0.06 73 1020.4
20260905093435 63 37 2.0 10.0 0.00 0.06 0.06 71 1020.6
20260905092645 63 298 3.0 6.0 0.00 0.06 0.06 74 1020.3
20260905092144 63 283 0.0 3.0 0.00 0.06 0.06 74 1020.4
20260905091928 64 176 0.0 3.0 0.00 0.06 0.06 76 1020.6
20260905091144 62 176 1.0 3.0 0.00 0.06 0.06 77 1020.5
20260905090931 62 18 0.0 3.0 0.00 0.06 0.06 78 1020.8
20260905090146 62 18 2.0 6.0 0.00 0.06 0.06 79 1020.7
20260905085648 61 281 3.0 7.0 0.00 0.06 0.06 79 1020.6
20260905085147 62 274 2.0 3.0 0.00 0.06 0.06 79 1020.4
20260905084647 61 166 1.0 2.0 0.00 0.06 0.06 85 1020.4
20260905084146 61 166 0.0 2.0 0.00 0.06 0.06 88 1020.3
20260905083647 61 243 0.0 3.0 0.00 0.06 0.06 86 1020.2
20260905083421 61 315 2.0 3.0 0.00 0.06 0.06 83 1020.3
20260905082652 61 286 1.0 7.0 0.00 0.06 0.06 84 1020.2
20260905081646 59 318 0.0 3.0 0.00 0.06 0.06 89 1020.0
20260905081148 59 42 1.0 3.0 0.00 0.06 0.06 90 1020.1
20260905080948 59 18 2.0 3.0 0.00 0.06 0.06 93 1020.0
20260905080143 58 220 0.0 3.0 0.00 0.06 0.06 95 1019.8
20260905075636 58 275 1.0 2.0 0.00 0.06 0.06 95 1019.8
20260905075135 58 132 0.0 2.0 0.00 0.06 0.06 95 1019.5
20260905074635 59 132 2.0 3.0 0.00 0.06 0.06 95 1019.1
20260905074124 58 132 0.0 3.0 0.00 0.06 0.06 95 1019.6
20260905073623 58 106 2.0 2.0 0.01 0.06 0.06 95 1020.0
20260905073120 58 106 0.0 2.0 0.01 0.06 0.06 95 1019.5
20260905072901 58 106 0.0 2.0 0.01 0.06 0.06 95 1019.5
20260905072114 58 106 1.0 2.0 0.01 0.06 0.06 95 1019.7
20260905071611 58 106 1.0 2.0 0.01 0.06 0.06 95 1019.7
20260905071108 58 106 0.0 0.0 0.01 0.06 0.06 95 1019.6
20260905070604 58 106 0.0 0.0 0.01 0.06 0.06 95 1019.7
20260905070119 58 106 0.0 0.0 0.01 0.06 0.06 95 1019.3
20260905065604 58 106 0.0 1.0 0.01 0.06 0.06 95 1019.0
20260905065100 58 106 0.0 2.0 0.01 0.06 0.06 95 1018.5
20260905064556 58 106 1.0 2.0 0.01 0.06 0.06 95 1018.8
20260905064059 58 106 1.0 2.0 0.02 0.06 0.06 95 1018.7
20260905063556 58 106 1.0 2.0 0.01 0.05 0.05 95 1018.6
20260905063056 58 106 0.0 0.0 0.01 0.05 0.05 95 1019.1
20260905062557 58 106 0.0 1.0 0.02 0.05 0.05 95 1019.0
20260905062057 58 106 0.0 2.0 0.02 0.05 0.05 95 1019.0
20260905061556 58 106 1.0 2.0 0.03 0.05 0.05 94 1018.5
20260905061103 58 106 0.0 2.0 0.03 0.05 0.05 94 1018.6
20260905060559 58 106 2.0 2.0 0.03 0.05 0.05 94 1018.4
20260905060045 58 106 2.0 2.0 0.03 0.05 0.05 94 1018.8
20260905055544 58 106 2.0 2.0 0.03 0.05 0.05 94 1019.0
20260905055044 58 106 0.0 2.0 0.04 0.05 0.05 94 1018.9
20260905054544 58 106 0.0 3.0 0.04 0.05 0.05 93 1018.6
20260905054418 58 106 1.0 3.0 0.03 0.04 0.04 93 1018.9
20260905052545 59 106 1.0 2.0 0.02 0.03 0.03 93 1018.8
20260905052327 59 106 0.0 2.0 0.02 0.03 0.03 93 1018.5
20260905051544 59 106 0.0 0.0 0.02 0.02 0.02 93 1018.6
20260905051044 59 106 0.0 1.0 0.02 0.02 0.02 93 1018.5
20260905050544 59 106 0.0 3.0 0.02 0.02 0.02 93 1018.3
20260905050044 59 105 1.0 3.0 0.02 0.02 0.02 92 1017.7
20260905045832 60 143 1.0 2.0 0.02 0.02 0.02 92 1018.0
20260905045044 60 251 0.0 4.0 0.01 0.01 0.01 91 1018.0
20260905044546 60 251 0.0 4.0 0.01 0.01 0.01 90 1017.7
20260905044048 59 301 3.0 4.0 0.01 0.01 0.01 92 1018.2
20260905043558 59 110 0.0 2.0 0.01 0.01 0.01 92 1017.4
20260905042547 59 110 0.0 2.0 0.01 0.01 0.01 91 1017.2
20260905042325 60 110 0.0 0.0 0.01 0.01 0.01 90 1017.3
20260905041548 60 110 0.0 0.0 0.00 0.00 0.00 90 1017.1
20260905041050 61 110 0.0 0.0 0.00 0.00 0.00 89 1017.4
20260905040037 61 110 0.0 2.0 0.00 0.00 0.00 84 1016.7
20260905035535 61 110 0.0 2.0 0.00 0.00 0.00 85 1016.6
20260905035034 61 110 1.0 2.0 0.00 0.00 0.00 85 1016.3
20260905034535 61 110 2.0 2.0 0.00 0.00 0.00 85 1016.3
20260905034034 60 110 2.0 2.0 0.00 0.00 0.00 86 1016.2
20260905033533 61 110 0.0 2.0 0.00 0.00 0.00 85 1016.4
20260905033033 60 110 0.0 3.0 0.00 0.00 0.00 87 1016.3
20260905032532 60 110 2.0 3.0 0.00 0.00 0.00 87 1016.0
20260905032032 60 110 0.0 0.0 0.00 0.00 0.00 87 1016.1
20260905031537 60 110 0.0 0.0 0.00 0.00 0.00 88 1016.1
20260905030523 61 110 0.0 2.0 0.00 0.00 0.00 87 1015.9
20260905030015 61 110 1.0 2.0 0.00 0.00 0.00 86 1015.6
20260905025514 62 110 0.0 1.0 0.00 0.00 0.00 85 1015.9
20260905025251 62 110 1.0 2.0 0.00 0.00 0.00 85 1015.7
20260905024514 62 110 0.0 2.0 0.00 0.00 0.00 84 1015.5
20260905024255 62 110 0.0 2.0 0.00 0.00 0.00 85 1015.7
20260905023513 62 110 1.0 2.0 0.00 0.00 0.00 84 1015.5
20260905023017 63 110 0.0 1.0 0.00 0.00 0.00 84 1015.8
20260905022518 64 110 0.0 2.0 0.00 0.00 0.00 82 1015.9
20260905022021 64 110 0.0 2.0 0.00 0.00 0.00 82 1015.8
20260905021513 64 110 0.0 2.0 0.00 0.00 0.00 82 1015.8
20260905021021 65 110 0.0 2.0 0.00 0.00 0.00 82 1015.7
20260905020747 64 110 1.0 2.0 0.00 0.00 0.00 78 1015.8
20260905020014 65 110 0.0 1.0 0.00 0.00 0.00 79 1015.8
20260905015513 65 110 0.0 2.0 0.00 0.00 0.00 81 1015.8
20260905015014 66 110 1.0 2.0 0.00 0.00 0.00 80 1015.5
20260905014513 65 72 0.0 1.0 0.00 0.00 0.00 80 1015.3
20260905014013 65 72 1.0 2.0 0.00 0.00 0.00 80 1015.1
20260905013508 65 72 0.0 2.0 0.00 0.00 0.00 81 1015.1
20260905013008 65 93 0.0 2.0 0.00 0.00 0.00 83 1014.9
20260905012508 65 93 0.0 2.0 0.00 0.00 0.00 81 1014.9
20260905012009 66 314 2.0 2.0 0.00 0.00 0.00 81 1014.7
20260905011509 66 126 0.0 2.0 0.00 0.00 0.00 80 1014.7
20260905011249 66 263 0.0 2.0 0.00 0.00 0.00 80 1014.7
20260905010507 66 300 1.0 2.0 0.00 0.00 0.00 80 1014.6
20260905010000 67 354 0.0 2.0 0.00 0.00 0.00 80 1014.5
20260905005457 66 354 1.0 2.0 0.00 0.00 0.00 79 1014.4
20260905005251 67 354 0.0 1.0 0.00 0.00 0.00 79 1014.2
20260905004734 67 354 0.0 2.0 0.00 0.00 0.00 79 1014.3
20260905004000 67 354 1.0 2.0 0.00 0.00 0.00 77 1014.0
20260905003455 67 354 0.0 0.0 0.00 0.00 0.00 78 1014.1
20260905002959 68 354 0.0 1.0 0.00 0.00 0.00 76 1013.7
20260905002457 68 354 0.0 1.0 0.00 0.00 0.00 76 1013.7
20260905002001 67 354 0.0 1.0 0.00 0.00 0.00 76 1013.6
20260905001459 68 236 0.0 1.0 0.00 0.00 0.00 77 1013.7
20260905001002 68 296 0.0 2.0 0.00 0.00 0.00 76 1013.6
20260905000458 68 102 1.0 4.0 0.00 0.00 0.00 75 1013.6
20260905000002 68 246 1.0 4.0 0.00 0.00 0.00 77 1013.3
20260904235458 67 288 2.0 7.0 0.00 0.00 0.00 77 1013.4
20260904235002 67 260 4.0 7.0 0.00 0.00 0.00 82 1013.4
20260904234459 67 85 1.0 2.0 0.00 0.00 0.00 80 1013.1
20260904234001 66 119 0.0 3.0 0.00 0.00 0.00 82 1013.1
20260904233456 66 74 2.0 3.0 0.00 0.00 0.00 80 1013.1
20260904232956 66 80 1.0 3.0 0.00 0.00 0.00 81 1013.1
20260904232455 66 80 3.0 3.0 0.00 0.00 0.00 80 1013.0
20260904231956 66 133 0.0 3.0 0.00 0.00 0.00 81 1013.0
20260904231733 66 106 2.0 4.0 0.00 0.00 0.00 81 1013.1
20260904230956 66 80 1.0 4.0 0.00 0.00 0.00 81 1013.0
20260904230509 66 119 2.0 4.0 0.00 0.00 0.00 81 1013.0
20260904225956 66 122 1.0 4.0 0.00 0.00 0.00 81 1012.9
20260904225456 66 118 2.0 3.0 0.00 0.00 0.00 81 1013.0
20260904224956 66 75 2.0 4.0 0.00 0.00 0.00 81 1012.9
20260904224456 66 84 3.0 4.0 0.00 0.00 0.00 80 1013.0
20260904223956 67 114 3.0 4.0 0.00 0.00 0.00 79 1012.8
20260904223456 66 70 2.0 4.0 0.00 0.00 0.00 81 1012.8
20260904222956 66 91 4.0 4.0 0.00 0.00 0.00 80 1012.8
20260904222457 66 88 2.0 4.0 0.00 0.00 0.00 80 1012.7
20260904221955 66 140 2.0 4.0 0.00 0.00 0.00 79 1012.9
20260904221735 67 80 2.0 3.0 0.00 0.00 0.00 76 1013.0
20260904220956 67 84 2.0 2.0 0.00 0.00 0.00 77 1013.0
20260904220456 68 101 0.0 6.0 0.00 0.00 0.00 77 1012.9
20260904215956 69 75 2.0 6.0 0.00 0.00 0.00 73 1012.9
20260904215455 67 92 3.0 7.0 0.00 0.00 0.00 76 1012.9
20260904214956 66 64 3.0 7.0 0.00 0.00 0.00 77 1012.8
20260904214457 66 89 3.0 6.0 0.00 0.00 0.00 80 1012.9
20260904213955 64 81 4.0 6.0 0.00 0.00 0.00 81 1013.0
20260904213457 65 85 3.0 7.0 0.00 0.00 0.00 81 1012.9
20260904212957 66 91 6.0 7.0 0.00 0.00 0.00 78 1013.1
20260904212734 67 111 3.0 7.0 0.00 0.00 0.00 75 1013.0
20260904211955 67 81 4.0 7.0 0.00 0.00 0.00 76 1013.0
20260904211456 69 107 5.0 7.0 0.00 0.00 0.00 76 1013.1
20260904210956 69 272 1.0 7.0 0.00 0.00 0.00 75 1013.0
20260904210455 67 71 1.0 6.0 0.00 0.00 0.00 76 1012.9
20260904205956 68 92 5.0 6.0 0.00 0.00 0.00 76 1013.1
20260904205456 67 88 4.0 6.0 0.00 0.00 0.00 76 1013.0
20260904204957 67 105 2.0 6.0 0.00 0.00 0.00 77 1012.9
20260904204456 67 99 3.0 6.0 0.00 0.00 0.00 76 1012.9
20260904203955 68 107 2.0 3.0 0.00 0.00 0.00 76 1013.0
20260904203456 68 96 1.0 6.0 0.00 0.00 0.00 75 1013.0
20260904202956 69 133 1.0 6.0 0.00 0.00 0.00 73 1013.1
20260904202456 68 87 0.0 6.0 0.00 0.00 0.00 76 1013.3
20260904201956 70 95 2.0 8.0 0.00 0.00 0.00 72 1013.3
20260904201729 69 349 3.0 8.0 0.00 0.00 0.00 73 1013.2
20260904200956 68 94 2.0 4.0 0.00 0.00 0.00 75 1013.2
20260904200732 67 64 2.0 6.0 0.00 0.00 0.00 75 1013.4
20260904195956 67 116 2.0 6.0 0.00 0.00 0.00 78 1013.3
20260904195455 67 84 2.0 6.0 0.00 0.00 0.00 79 1013.3
20260904194955 68 106 3.0 4.0 0.00 0.00 0.00 77 1013.3
20260904194734 69 69 3.0 4.0 0.00 0.00 0.00 74 1013.3
20260904193955 68 84 3.0 4.0 0.00 0.00 0.00 75 1013.4
20260904193455 69 101 1.0 6.0 0.00 0.00 0.00 75 1013.5
20260904192956 69 84 2.0 6.0 0.00 0.00 0.00 76 1013.6
20260904192457 69 89 4.0 4.0 0.00 0.00 0.00 75 1013.5
20260904191956 68 103 1.0 3.0 0.00 0.00 0.00 78 1013.4
20260904191456 68 74 1.0 2.0 0.00 0.00 0.00 76 1013.7